sat.trackr.live / text

‹ back to catalog

ONEWEB-0365

NORAD 49291 · 2021-090N

PAYLOAD ACTIVE UNKNOWN

§ Identity

Operator
Country
UK
Launch date
2021-10-14
Launch site
VOSTO
Launch vehicle
Mass (kg)
RCS (m²)

Purposes: comms

External: N2YO · Heavens-Above · Gunter

§ Orbital elements

Epoch: 2026-05-24T23:40:57.104256Z

Period
109.11 min
Inclination
87.9161°
Eccentricity
0.0001724
Mean motion
13.19726547 rev/d
Perigee alt
1,184.5 km
Apogee alt
1,187.1 km
Semi-major
7,563.9 km
B*
-1.6020e-4
RAAN
309.5901°
Arg perigee
92.8479°
Mean anomaly
267.2851°
Rev number
22,336

§ Raw data

ONEWEB-03651 49291U 21090N   26144.98677204 -.00000051  00000+0 -16020-3 0  99962 49291  87.9161 309.5901 0001724  92.8479 267.2851 13.19726547223361

JSON: /api/v1/satellites/49291 · /tle

For live sub-satellite position, see the globe view (requires WebGL).

§ Visibility from observer

Set your observer location to see the next 7 days of passes ≥ 10°. The values pass through the URL so the page stays shareable.

No JS? Fill the form by hand. The geolocation button needs JavaScript.